Вернуться в каталог

FENGYUN 1C DEB

АктивенSSO
NORAD 31837·DEBRIS·🇨🇳 China

Запущен May 10, 1999 с Taiyuan Satellite Launch Center

Loading…

Ближайшие Пролёты (ближайшие 24 часа)

TLE

УстаревающийSource: Space-Track

Эпоха: Sep 6, 2026, 12:05 UTC

1 31837U 99025CJB 26249.50388274  .00004953  00000-0  52255-3 0  9990
2 31837  98.0815 334.1238 0084932 224.8248 134.6086 14.87132345 23264

Отслеживайте FENGYUN 1C DEB в реальном времени с AllMySat

Download on the App Store